TimeMST,TemperatureF,Dew PointF,Humidity,Sea Level PressureIn,VisibilityMPH,Wind Direction,Wind SpeedMPH,Gust SpeedMPH,PrecipitationIn,Events,Conditions,WindDirDegrees,DateUTC
12:53 AM,43.0,32.0,65,30.12,10.0,Calm,Calm,-,N/A,,Clear,0,2012-11-19 07:53:00
1:53 AM,46.0,32.0,58,30.11,10.0,West,10.4,-,N/A,,Clear,270,2012-11-19 08:53:00
2:53 AM,48.0,30.9,52,30.10,10.0,WNW,10.4,-,N/A,,Clear,290,2012-11-19 09:53:00
3:53 AM,45.0,30.0,56,30.11,10.0,NW,8.1,-,N/A,,Clear,310,2012-11-19 10:53:00
4:53 AM,43.0,30.0,60,30.12,10.0,NW,4.6,-,N/A,,Clear,320,2012-11-19 11:53:00
5:53 AM,42.1,30.0,62,30.16,10.0,NW,3.5,-,N/A,,Clear,320,2012-11-19 12:53:00
6:53 AM,43.0,30.0,60,30.18,10.0,NW,5.8,-,N/A,,Clear,310,2012-11-19 13:53:00
7:53 AM,46.0,30.0,54,30.20,10.0,NE,4.6,-,N/A,,Clear,40,2012-11-19 14:53:00
8:53 AM,53.1,32.0,45,30.21,10.0,NNE,3.5,-,N/A,,Clear,30,2012-11-19 15:53:00
9:53 AM,55.9,34.0,44,30.22,10.0,Calm,Calm,-,N/A,,Clear,0,2012-11-19 16:53:00
10:53 AM,60.1,34.0,38,30.20,10.0,East,4.6,-,N/A,,Clear,80,2012-11-19 17:53:00
11:53 AM,62.1,35.1,37,30.18,10.0,ESE,8.1,-,N/A,,Clear,120,2012-11-19 18:53:00
12:53 PM,63.0,30.9,30,30.15,10.0,South,5.8,-,N/A,,Clear,190,2012-11-19 19:53:00
1:53 PM,64.0,30.0,28,30.13,10.0,Calm,Calm,-,N/A,,Clear,0,2012-11-19 20:53:00
2:53 PM,64.9,28.9,26,30.11,10.0,ENE,3.5,-,N/A,,Clear,70,2012-11-19 21:53:00
3:53 PM,64.0,28.9,27,30.12,10.0,East,3.5,-,N/A,,Clear,100,2012-11-19 22:53:00
4:53 PM,60.1,28.0,30,30.15,10.0,East,3.5,-,N/A,,Clear,80,2012-11-19 23:53:00
5:53 PM,55.9,27.0,33,30.18,10.0,ENE,4.6,-,N/A,,Clear,70,2012-11-20 00:53:00
6:53 PM,55.0,28.0,35,30.20,10.0,Calm,Calm,-,N/A,,Clear,0,2012-11-20 01:53:00
7:53 PM,48.0,25.0,41,30.21,10.0,Calm,Calm,-,N/A,,Clear,0,2012-11-20 02:53:00
8:53 PM,46.9,25.0,42,30.20,10.0,NW,6.9,-,N/A,,Clear,310,2012-11-20 03:53:00
9:53 PM,46.0,26.1,46,30.21,10.0,WNW,8.1,-,N/A,,Clear,290,2012-11-20 04:53:00
10:53 PM,44.1,26.1,49,30.19,10.0,WNW,8.1,-,N/A,,Clear,290,2012-11-20 05:53:00
11:53 PM,44.1,26.1,49,30.19,10.0,WNW,9.2,-,N/A,,Clear,290,2012-11-20 06:53:00